Location: Fernhill
(41.0167°S, 175.6333°E)
Time: 23:29:25
(UTC+00:00)

CZ-4 R/B - Pass Details

Date: 08 November 2025
Orbit: 496 x 541 km, 97.6° (Epoch: 04 December)

Event Time Altitude Azimuth Distance (km) Brightness Sun altitude
Rises 08:36:30 0° 162° (SSE) 2,634 5.1 -15.3°
Reaches altitude 10° 08:38:40 10° 156° (SSE) 1,736 4.1 -15.7°
Maximum altitude 08:42:17 47° 81° (E) 682 1.4 -16.2°
Enters shadow 08:43:25 34° 32° (NNE) 846 1.7 -16.3°
